Luxor, Egypt

3:11 PM EET on August 23, 2017 (GMT +0200)
Luxor

Weather History for HELX - January, 2014

Change the Weather History Date:

Wednesday, January 8, 2014

  Actual Average Record
Temperature  
Mean Temperature 62 °F -  
Max Temperature 75 °F 71 °F 82 °F (2003)
Min Temperature 50 °F 45 °F 35 °F (2002)
Degree Days  
Heating Degree Days 2    
Growing Degree Days 12 (Base 50)    
Moisture  
Dew Point 48 °F    
Average Humidity 60    
Maximum Humidity 82    
Minimum Humidity 35    
Precipitation  
Precipitation 0.00 in 0.00 in - ()
Sea Level Pressure  
Sea Level Pressure 29.97 in    
Wind  
Wind Speed 1 mph ()    
Max Wind Speed 5 mph    
Max Gust Speed -    
Visibility 5.8 miles    
Events      
Averages and records for this station are not official NWS values.
T = Trace of Precipitation, MM = Missing Value Source: Averaged Metar Reports

Daily Weather History Graph

Daily Weather History Graph

Search for Another Location

Airport or City:

Trip Planner

Search our weather history database for the weather conditions in past years. The results will help you decide how hot, cold, wet, or windy it might be!

Date:

Astronomy

Jan. 08, 2014 Rise Set
Actual Time 6:37 AM EET 5:14 PM EET
Civil Twilight 6:12 AM EET 5:39 PM EET
Nautical Twilight 5:43 AM EET 6:08 PM EET
Astronomical Twilight 5:15 AM EET 6:36 PM EET
Moon 11:35 AM EET (1/8) No Moon Set
Length of Visible Light 11h 27m
Length of Day
10h 37m
First Quarter, 53% of the Moon is Illuminated
Jan 8
First Quarter
Jan 16
Full
Jan 24
Last Quarter
Jan 30
New
Feb 6
First Quarter

Hourly Weather History & Observations

Time (EET) Temp. Dew Point Humidity Pressure Visibility Wind Dir Wind Speed Gust Speed Precip Events Conditions
12:00 AM 57.2 °F 50.0 °F 77% 29.98 in - NNW 3.5 mph - N/A   Clear
1:00 AM 57.2 °F 50.0 °F 77% 29.95 in - Calm Calm - N/A   Clear
2:00 AM 54 °F 46 °F 65% 29.98 in 6 mi Calm Calm - -  
2:00 AM 55.4 °F 46.4 °F 72% 29.98 in - Calm Calm - N/A   Clear
3:00 AM 53.6 °F 44.6 °F 72% 29.95 in - Calm Calm - N/A   Clear
4:00 AM 51.8 °F 44.6 °F 76% 29.95 in - SE 4.6 mph - N/A   Clear
5:00 AM 51.8 °F 44.6 °F 76% 29.95 in - Calm Calm - N/A   Clear
6:00 AM 50.0 °F 44.6 °F 82% 29.98 in - Calm Calm - N/A   Clear
7:00 AM 50.0 °F 44.6 °F 82% 29.98 in - SSE 2.3 mph - N/A   Clear
8:00 AM 53.6 °F 46.4 °F 77% 30.01 in - Calm Calm - N/A   Clear
9:00 AM 60.8 °F 51.8 °F 72% 30.01 in 4.3 mi Calm Calm - N/A   Unknown
10:00 AM 64.4 °F 53.6 °F 68% 30.01 in 4.3 mi Calm Calm - N/A   Unknown
11:00 AM 69.8 °F 53.6 °F 56% 30.01 in - Calm Calm - N/A   Clear
12:00 PM 71.6 °F 53.6 °F 53% 29.98 in - SSW 2.3 mph - N/A   Clear
1:00 PM 71.6 °F 53.6 °F 53% 29.95 in - Calm Calm - N/A   Clear
2:00 PM 74 °F 52 °F 36% 29.93 in 6 mi West 2.3 mph - -  
2:00 PM 73.4 °F 51.8 °F 47% 29.92 in - West 2.3 mph - N/A   Clear
3:00 PM 73.4 °F 46.4 °F 38% 29.92 in 6.2 mi SW 4.6 mph - N/A   Partly Cloudy
4:00 PM 73.4 °F 48.2 °F 41% 29.92 in 6.2 mi WSW 3.5 mph - N/A   Partly Cloudy
5:00 PM 72 °F 50 °F 35% 29.93 in 6 mi Calm Calm - -   Scattered Clouds
5:00 PM 71.6 °F 50.0 °F 46% 29.95 in 6.2 mi Calm Calm - N/A   Partly Cloudy
6:00 PM 66.2 °F 51.8 °F 60% 29.95 in 6.2 mi West 2.3 mph - N/A   Partly Cloudy
7:00 PM 66.2 °F 51.8 °F 60% 29.98 in 6.2 mi WNW 3.5 mph - N/A   Partly Cloudy
8:00 PM 64 °F 47 °F 43% 29.98 in 6 mi West 3.5 mph - -   Scattered Clouds
8:00 PM 64.4 °F 46.4 °F 52% 29.98 in - West 3.5 mph - N/A   Clear
9:00 PM 60.8 °F 44.6 °F 55% 29.98 in - SSW 4.6 mph - N/A   Clear
10:00 PM 59.0 °F 46.4 °F 63% 30.01 in - Calm Calm - N/A   Clear
11:00 PM 59 °F 44 °F 46% 29.99 in 6 mi SSE 2.3 mph - -  
11:00 PM 59.0 °F 44.6 °F 59% 29.98 in - SSE 2.3 mph - N/A   Clear